My Meet Scores
Sydney Fazio, Aspire Gymnastics Academy - MyMeetScores.com
Top100 | Top Teams | Upcoming Meets | Completed Meets | Latest | Add Scores | Help| Support | Bookmark and Share

Sydney Fazio, Aspire Gymnastics Academy
Personal Bests
LevelVault BarsBeamFloorAA
39.5509.550 9.3009.27536.850
49.0509.650 9.8009.15036.925
59.4009.725 9.5509.50037.375
79.3009.825 9.5009.45037.575
Scores on America's Top 100as of 06.06.2020
Year Level Vault Bars Beam Floor AA
2019 59.725
2020 79.825

Click here to view our exclusive Top 100 Collection
Meet Scores
Date Meet Team Session Level Division Vault Bars Beam Floor AA
2020-03-06 Illinois Level 4 State Championships Aspire Gymnastics Academy 5 4 Jr D 8.350 26T 9.275 12 8.900 21 8.450 24T 34.975 24
2020-02-21 Great Western Invitational - Women's Aspire Gymnastics Academy 03 7 Buckaroo 8.625 17T 9.825 1 9.500 6T 9.350 9T 37.300 6
2020-02-14 Big Classic Aspire Gymnastics Academy 6B 4 Child D 8.475 46T 9.050 32T 9.200 26T 8.825 47T 35.550 38
2020-01-24 Uga Invitational Aspire Gymnastics Academy 1A 7 Jr A 8.675 11T 9.700 2 8.775 13 9.400 11T 36.550 11
2020-01-24 Uga Invitational Aspire Gymnastics Academy B3 4 Jr A 8.200 13 9.300 4 8.975 7 8.575 9 35.050 7
2020-01-17 2020 Bravo Classic Aspire Gymnastics Academy 4B 7 Child 9.150 4T 9.775 1 9.250 7T 9.275 8 37.450 3
2020-01-17 2020 Bravo Classic Aspire Gymnastics Academy 6B 4 Jr 8.675 12 9.125 13 8.850 13 8.900 15 35.550 13T
2020-01-03 2020 California Grand Invitational Aspire Gymnastics Academy L06 7 Child 8.850 9 9.650 1 9.200 7 9.200 7T 36.900 4T
2019-12-20 Aspire Classic - 2019 Aspire Gymnastics Academy 2B 7 Younger 9.300 4 9.575 6 9.250 12 9.450 12 37.575 4
2019-12-20 Aspire Classic - 2019 Aspire Gymnastics Academy 7A 4 Older 8.100 18 8.800 8T 9.050 13 8.375 18 34.325 18
2019-12-13 2019 St Nick Aspire Gymnastics Academy 6B 4 SrA 8.525 12 8.500 12 8.525 12 8.625 13 34.175 12
2019-03-22 Illinois Gymnastics State Championships Aspire Gymnastics Academy 2 5 JR C 9.400 11T 9.525 2 8.925 15 9.450 5 37.300 5
2019-03-08 2019 Illinois Level 3 State Championship Aspire Gymnastics Academy 3 3 Jr D 9.325 17T 9.375 17T 9.000 12 9.150 13T 36.850 12T
2019-03-08 Lucky Invite Aspire Gymnastics Academy A07 5 Jr A 9.200 3 9.550 1 8.825 9 9.075 5 36.650 4
2019-02-23 Kinetic Classic 2019 Aspire Gymnastics Academy 1 3 Older 9.000 25T 8.650 42 9.100 26T 9.200 14T 35.950 28T
2019-02-23 Kinetic Classic 2019 Aspire Gymnastics Academy 1 5 Younger 8.625 8T 9.075 7 9.250 10T 8.725 9 35.675 10
2019-02-15 Big ClassicBIG CLASSIC Aspire Gymnastics Academy 5B 5 Child B 9.350 2 9.725 1 9.200 2 9.100 5 37.375 2
2019-02-15 Big ClassicBIG CLASSIC Aspire Gymnastics Academy 1A 3 Child D 8.850 11 8.450 13 9.150 9T 8.975 11 35.425 12
2019-01-25 UGA Invitational Aspire Gymnastics Academy B11 5 Jr A 9.250 5 9.425 3 9.350 4 9.100 7T 37.125 4
2019-01-25 UGA Invitational Aspire Gymnastics Academy B09 3 Jr B 9.550 2 8.600 8T 8.925 4 8.900 13 35.975 8
2019-01-18 2019 Bravo Classic Aspire Gymnastics Academy 2A 5 Child 8.700 16T 9.175 8 9.250 7T 9.500 10T 36.625 9
2019-01-18 2019 Bravo Classic Aspire Gymnastics Academy 8B 3 Jr 9.200 6T 9.150 7 9.000 6T 8.800 12 36.150 7T
2018-12-14 2018 Aspire Classic Aspire Gymnastics Academy 8A 5 Younger 9.000 17T 8.850 15T 9.550 2 9.200 5 36.600 6
2018-12-14 2018 Aspire Classic Aspire Gymnastics Academy 2 3 Sr B 8.900 16T 9.200 13 9.025 10 8.750 17 35.875 13
2018-12-07 St. Nick Invite 2018 Aspire Gymnastics Academy 1 5 JrA 8.650 15T 8.800 9 9.350 3 9.000 5 35.800 6
2018-12-07 St. Nick Invite 2018 Aspire Gymnastics Academy 7A 3 SrB 8.900 15 9.000 12T 8.875 10 8.875 13T 35.650 12
2018-11-17 Paul Hamm Thanksgiving Class WOMENS Aspire Gymnastics Academy 5 5 Younger 8.700 17 9.350 2 9.000 9 9.275 7T 36.325 6
2018-11-17 Paul Hamm Thanksgiving Class WOMENS Aspire Gymnastics Academy 1 3 Middle 8.575 14 8.850 8 9.300 3 8.850 8 35.575 5
2018-05-03 Illinois USA Gymnastics Level 3 State Championships Aspire Gymnastics Academy 3 3 Youth D 9.325 22T 8.425 26 8.650 19 8.650 26 35.050 26
2018-03-08 Level 4 & 5 State Aspire Gymnastics Academy All 4 Ch F 9.050 6T 9.375 2 9.325 14T 9.150 10T 36.900 4
2018-02-16 Big Classic Aspire Gymnastics Academy 2B 4 Child A 8.600 6 9.250 6 8.900 7 9.125 9 35.875 6
2018-02-16 Big Classic Aspire Gymnastics Academy 1B 3 Child A 8.700 14 8.200 16 7.850 16 7.650 17 32.400 17
2018-01-26 2018 UGA Classic Aspire Gymnastics Academy AA1 4 Jr B 8.775 7 9.300 3 9.800 2 9.050 7T 36.925 3
2018-01-26 2018 UGA Classic Aspire Gymnastics Academy A8 3 Jr C 8.900 17 8.700 18 8.800 18T 7.300 19 33.700 18
2018-01-19 2018 Bravo Classic Aspire Gymnastics Academy 11B 4 Child 8.500 4 9.350 1 9.250 4 9.150 5 36.250 2
2018-01-19 2018 Bravo Classic Aspire Gymnastics Academy 7B 3 Jr 8.400 18 8.275 16T 8.575 15 7.775 18 33.025 18
2017-12-15 2017 Aspire Classic Aspire Gymnastics Academy 3 4 Jr A 8.550 11T 9.425 5 8.975 12T 8.850 7T 35.800 5
2017-12-15 2017 Aspire Classic Aspire Gymnastics Academy 11A 3 Middle 8.925 19 8.550 19 7.700 20 7.700 21 32.875 20
2017-12-08 St. Nick Invite Aspire Gymnastics Academy 7A 4 JrA 8.975 8T 9.050 9T 8.950 11 8.825 12 35.800 9
2017-12-08 St. Nick Invite Aspire Gymnastics Academy 6A 3 JrB 8.950 10 8.150 12 8.100 11 7.250 16 32.450 15
2017-11-16 Paul Hamm Thanksgiving Classic - Women Aspire Gymnastics Academy 7 4 Younger 8.700 12T 9.650 6T 9.275 7 8.925 13 36.550 10
2017-11-16 Paul Hamm Thanksgiving Classic - Women Aspire Gymnastics Academy 1 3 Middle 8.675 18 8.200 18T 8.100 15 7.500 21 32.475 21
2017-03-30 2017 Illinois Level 3 & 5 State Aspire Gymnastics Academy All 3 Yh A 9.025 25T 9.550 6 8.675 21 9.200 11T 36.450 12
2017-02-24 Kinetic Classic Aspire Gymnastics Academy 4,5,6,7 3 All Ages 9.250 30T 9.275 23T 8.750 58T 9.275 20T 36.550 27T
2017-02-18 2017 Great Western Invitational Women's Aspire Gymnastics Academy 1 3 Filly 8.700 19 9.050 7 8.675 11 9.275 4 35.700 11
2017-01-27 2017 UGA Invitational Aspire Gymnastics Academy B6 3 Jr B 8.300 16 8.725 11 8.750 14T 8.700 12T 34.475 13
2017-01-20 2017 Bravo Classic Aspire Gymnastics Academy 11B 3 8yrs 8.900 17T 9.400 5T 8.800 9T 8.650 15T 35.750 11
2016-12-16 2016 Aspire Classic Aspire Gymnastics Academy 12 3 Younger 9.000 10T 8.875 9 8.375 6T 8.850 9T 35.100 8
2016-12-09 St. Nick Invite Aspire Gymnastics Academy 6 3 All 9.100 15T 8.800 13T 8.550 19 8.950 14T 35.400 18
2016-11-19 Paul Hamm Thanksgiving Classic - 2016 Girls Aspire Gymnastics Academy 6 3 8-9 yrs 8.775 25 9.050 11T 8.600 16T 8.775 24T 35.200 17
Get your scores on
a t-shirt, pin, or hoodie

www.lazysuits.com